Location: La Chapelle
(48.3135°N, 1.3085°W)
Time: 20:30:21
(UTC+00:00)

USA 306 - Pass Details

Date: 03 March 2021
Orbit: 564 x 577 km, 54.0° (Epoch: 13 April)

Event Time Altitude Azimuth Distance (km) Brightness Sun altitude
Rises 18:17:54 0° 265° (W) 2,773 9.5 -5.0°
Reaches altitude 10° 18:20:14 10° 271° (W) 1,874 7.4 -5.4°
Maximum altitude 18:24:20 46° 346° (NNW) 776 3.7 -6.1°
Drops below altitude 10° 18:28:27 10° 60° (ENE) 1,870 5.0 -6.8°
Enters shadow 18:29:14 - 63° (ENE) 2,169 5.3 -6.9°
